Wind_Speed
81 82 82 84 85 85 86 88 89 91 92 93 94 92 91 91 93 93 93 95 96 98 98 96 99 101 100 99 101 100 100 100 102 99 96 96 98 101 102 103 105 107 108
87 85 85 86 86 88 90 91 93 96 95 93 93 94 95 96 100 100 102 103 104 102 103 101 102 104 100 99 98 97 98 100 100 98 93 96 99 99 100 104 105 108 112
88 87 88 90 91 93 94 96 97 95 96 98 99 100 101 103 104 104 103 104 103 105 107 108 105 101 103 99 97 95 92 91 94 97 95 97 100 100 103 106 110 111 114
93 94 95 95 95 95 95 96 97 99 100 102 104 106 106 108 107 109 111 112 113 111 108 106 104 100 96 94 93 91 93 94 93 95 96 97 100 103 106 109 111 116 119
99 99 99 99 99 100 101 103 105 107 109 112 113 115 115 116 115 112 112 108 106 106 107 102 100 95 95 94 96 98 97 99 98 98 100 103 105 108 112 114 119 123 124
104 105 105 105 106 109 110 111 114 116 119 120 119 117 117 117 119 114 112 110 102 96 98 95 95 98 100 101 101 102 103 103 102 106 110 111 112 113 118 117 119 121 125
111 113 112 113 114 117 118 119 120 123 126 126 123 123 116 111 110 101 96 97 96 96 94 97 99 102 105 107 106 107 109 110 112 116 120 119 120 121 126 127 126 128 126
116 117 118 119 119 122 123 122 121 121 111 109 108 105 101 103 102 101 103 102 102 104 105 104 105 109 111 112 112 111 113 113 116 119 123 126 126 124 125 128 127 125 126
120 123 124 122 120 119 120 116 110 104 103 105 106 107 106 109 109 110 112 114 116 117 116 114 116 118 117 116 117 120 121 124 127 130 131 133 133 132 132 124 120 122 121
117 118 117 113 112 111 109 103 107 108 109 110 110 115 117 116 115 120 120 119 123 125 124 128 127 128 125 125 129 131 129 127 129 129 129 127 126 122 119 118 116 119 120
108 109 110 108 105 108 110 113 114 116 118 121 121 120 120 126 129 130 129 129 129 131 131 131 135 138 138 136 132 127 128 128 126 121 120 117 116 117 114 115 117 117 119
110 109 108 109 113 115 116 116 121 127 129 129 130 131 131 132 133 133 138 139 140 137 136 135 132 133 131 128 122 122 120 116 116 117 116 116 114 115 114 115 115 117 118
111 113 116 119 122 124 124 126 126 129 130 133 135 138 140 143 142 139 139 135 133 131 129 125 121 118 118 113 115 116 116 115 112 112 111 111 110 110 110 110 111 112 113
118 120 123 125 127 129 130 130 131 131 132 134 136 137 135 134 131 128 126 124 122 122 120 120 118 115 116 112 113 110 109 107 106 105 103 104 103 103 103 104 108 109 110
125 127 129 131 132 133 133 133 134 135 134 132 130 128 124 123 121 121 120 118 118 118 115 113 112 109 107 105 105 102 102 100 99 98 97 97 98 101 102 103 104 106 109
133 134 135 135 133 132 129 126 124 122 121 121 120 119 117 115 113 110 109 109 108 106 105 104 102 102 101 99 96 93 92 91 91 93 95 96 98 99 101 104 105 107 110
131 129 127 125 123 121 119 118 117 115 113 111 109 107 106 105 105 105 102 102 101 101 101 100 99 97 97 94 92 91 89 89 89 92 93 95 96 98 101 102 103 106 107
123 121 120 118 116 113 109 107 106 104 104 103 102 101 100 100 102 101 99 98 97 96 96 94 92 92 93 93 90 88 89 91 92 93 94 96 97 98 99 101 101 102 104
109 108 107 106 105 104 100 98 98 96 96 97 96 96 96 97 97 97 94 93 93 92 91 90 90 89 87 87 89 91 91 93 93 94 94 95 96 96 97 98 100 103 107
102 102 101 100 98 95 90 89 90 91 91 91 91 92 93 94 95 95 93 92 92 91 88 87 87 87 86 87 89 90 93 93 94 94 94 94 95 97 100 103 105 107 109
97 96 96 94 94 93 89 88 89 90 89 91 91 90 91 92 93 91 91 89 89 89 90 90 90 89 89 91 91 93 95 95 97 98 99 99 99 101 103 106 107 103 99
95 96 96 95 94 93 92 91 93 92 91 91 91 91 92 92 91 91 90 90 90 89 89 90 90 92 93 93 94 95 96 98 99 100 101 102 103 104 104 100 96 95 97
94 95 94 93 93 94 92 92 92 93 92 92 93 92 91 91 93 93 92 92 90 90 90 90 91 92 93 95 97 98 99 99 100 101 102 103 103 99 96 95 95 94 92
92 93 93 92 93 94 91 92 91 90 91 92 92 90 91 92 92 94 93 92 92 92 92 92 93 95 96 96 98 99 100 99 100 101 101 97 93 93 92 90 89 89 87
90 90 90 90 91 91 90 90 90 90 90 89 89 89 90 91 91 92 93 94 94 95 94 95 96 98 98 99 99 99 99 99 97 96 95 94 91 89 89 87 84 83 81
86 85 85 85 85 84 85 86 86 86 87 87 88 88 88 90 92 93 94 94 94 95 96 96 96 96 97 98 99 97 97 95 94 95 93 89 87 85 83 81 80 78 76
Wind_Direction
275 276 277 277 278 280 281 282 283 285 286 288 289 292 292 292 292 293 295 295 296 298 298 298 298 298 297 298 297 297 295 294 293 293 293 291 290 290 293 294 294 294 294
277 278 279 280 280 281 281 282 283 285 288 289 289 290 291 292 294 295 297 298 299 297 297 297 296 296 297 296 296 294 292 292 292 292 290 291 292 293 293 292 293 294 294
281 281 281 280 281 282 283 284 286 287 288 289 290 291 292 292 293 294 295 296 295 295 295 296 295 294 295 292 293 289 291 293 292 293 291 292 293 292 292 292 292 293 294
277 278 280 282 284 285 285 286 287 289 289 290 290 290 290 291 291 291 294 294 295 295 294 294 294 291 293 291 292 292 291 292 292 292 292 292 291 291 290 290 291 293 295
277 277 278 279 281 283 285 286 286 287 287 288 288 289 289 289 289 290 291 291 291 291 292 290 291 289 291 290 291 291 291 291 292 292 292 291 291 290 290 290 291 293 294
274 274 274 275 277 278 280 282 282 283 284 285 285 285 285 285 288 288 286 287 287 288 288 289 286 286 287 287 288 289 289 290 290 289 289 290 289 290 291 292 292 290 292
275 275 275 276 277 277 278 280 280 282 282 281 280 281 283 284 283 282 282 283 281 284 284 282 282 283 283 284 285 285 286 287 288 289 289 290 291 292 293 297 295 295 295
274 275 276 277 278 279 281 282 282 282 280 280 280 280 279 280 279 281 282 282 283 283 283 282 283 283 284 283 283 285 285 287 288 288 288 290 292 293 294 295 294 294 294
274 274 275 277 278 278 280 280 279 278 278 280 280 280 280 280 280 280 280 280 281 281 282 284 284 284 284 284 284 284 284 285 287 286 287 290 291 291 293 293 292 292 292
274 274 274 275 276 277 277 276 275 276 278 279 279 279 278 279 282 281 280 282 281 282 281 281 283 283 284 285 285 287 289 287 288 290 290 290 290 292 291 292 291 291 293
275 275 275 274 273 273 275 274 275 275 276 276 277 276 277 278 278 280 280 281 283 281 282 283 282 283 285 286 286 287 289 289 290 290 291 291 290 291 291 290 291 291 292
274 274 274 272 273 273 272 276 276 275 275 277 278 278 277 278 278 279 278 278 279 282 283 284 284 284 286 286 289 288 289 290 290 290 290 289 289 289 290 290 291 291 291
272 272 271 271 272 272 273 273 274 275 276 275 277 278 279 279 280 282 283 283 282 283 284 284 284 285 286 288 287 288 289 289 289 289 289 289 289 289 289 288 289 290 289
273 274 274 274 274 275 276 276 277 279 279 280 281 281 282 283 284 284 284 284 284 284 285 285 286 287 287 287 287 288 287 288 288 288 287 287 287 287 287 287 288 289 290
276 277 278 278 279 279 279 279 280 280 281 282 283 283 283 283 283 283 284 284 284 284 285 286 287 287 288 287 288 290 289 289 288 288 287 287 287 287 287 287 287 287 288
279 280 280 281 279 280 280 281 282 282 282 282 282 283 283 283 283 283 283 284 284 285 286 287 288 289 289 288 288 288 288 289 287 286 286 285 286 287 287 288 288 288 288
279 279 280 280 281 281 282 282 282 282 282 282 282 283 283 283 283 283 284 285 287 287 288 288 289 289 289 289 288 289 289 288 287 286 285 286 286 286 286 286 286 287 287
278 279 280 280 280 280 281 282 281 282 282 281 280 280 281 281 282 283 284 285 286 287 288 289 289 288 289 291 292 291 289 288 288 289 288 287 287 287 287 287 287 288 288
277 277 277 278 279 279 279 279 279 280 280 280 281 281 281 282 282 284 285 286 285 286 288 289 289 288 288 288 288 288 289 289 288 288 287 287 287 286 288 288 288 289 289
276 277 277 277 278 278 279 279 279 279 279 280 281 281 282 282 283 284 286 286 287 288 288 287 286 286 286 286 286 286 286 287 287 287 287 288 288 289 290 290 289 289 291
276 276 276 277 277 278 278 278 278 278 279 278 279 280 280 281 282 284 285 286 286 286 285 286 286 286 285 285 285 285 286 288 289 289 290 291 292 291 290 289 291 294 293
277 277 277 277 277 278 278 278 278 278 278 278 278 278 278 280 282 283 284 285 285 285 285 285 285 285 286 286 287 288 289 288 290 292 292 291 292 292 293 298 298 294 292
276 275 276 276 277 277 277 277 277 277 278 277 276 277 278 280 281 283 284 284 284 285 284 284 284 285 286 286 287 288 290 290 291 291 292 292 293 297 297 295 294 295 295
275 275 276 276 276 275 276 276 276 276 275 275 276 277 278 278 279 280 281 282 282 282 282 283 284 285 286 287 288 289 290 291 291 291 293 296 297 295 295 296 297 297 297
276 276 276 275 274 275 275 275 274 274 274 275 276 276 276 277 279 279 279 280 280 282 284 285 286 287 288 288 290 291 290 291 295 297 297 297 298 298 297 298 298 298 298
275 275 274 274 273 273 273 272 273 274 274 274 275 275 276 275 275 277 278 281 282 282 283 285 287 287 287 288 290 293 295 297 298 297 297 298 298 298 298 298 298 298 297
Height
10671 10668 10664 10661 10657 10653 10649 10644 10639 10634 10627 10623 10618 10614 10609 10604 10600 10598 10594 10591 10588 10578 10570 10563 10557 10548 10542 10539 10529 10523 10516 10506 10503 10499 10497 10486 10476 10466 10459 10451 10442 10433 10423
10650 10648 10645 10641 10639 10634 10629 10624 10619 10613 10607 10603 10597 10592 10585 10579 10574 10569 10564 10561 10559 10555 10546 10540 10533 10525 10520 10513 10507 10499 10493 10484 10476 10474 10473 10464 10453 10444 10437 10428 10419 10410 10400
10629 10626 10621 10617 10614 10611 10607 10602 10597 10593 10589 10581 10576 10571 10564 10557 10551 10545 10539 10536 10532 10527 10521 10515 10508 10501 10496 10488 10484 10476 10470 10463 10454 10447 10445 10439 10432 10422 10413 10403 10394 10385 10374
10611 10608 10604 10598 10593 10588 10584 10579 10575 10569 10564 10559 10554 10549 10541 10535 10529 10523 10518 10512 10506 10499 10493 10489 10483 10476 10471 10464 10459 10452 10447 10440 10434 10424 10420 10413 10405 10397 10387 10377 10367 10359 10350
10591 10586 10583 10580 10573 10568 10563 10559 10554 10548 10543 10537 10531 10525 10520 10514 10506 10499 10494 10488 10483 10477 10471 10465 10459 10454 10448 10441 10436 10430 10424 10417 10410 10402 10395 10387 10379 10369 10360 10352 10341 10331 10321
10572 10567 10565 10561 10555 10549 10545 10540 10534 10528 10521 10514 10508 10502 10497 10490 10484 10477 10471 10466 10460 10453 10449 10444 10438 10431 10424 10417 10411 10407 10400 10393 10387 10377 10370 10360 10351 10342 10332 10325 10314 10302 10293
10543 10539 10537 10535 10531 10525 10521 10515 10509 10505 10500 10491 10484 10478 10474 10466 10460 10452 10447 10442 10437 10431 10425 10420 10415 10407 10400 10394 10388 10383 10374 10367 10360 10350 10341 10332 10324 10313 10304 10293 10282 10272 10261
10513 10512 10506 10503 10498 10491 10487 10482 10476 10472 10466 10460 10455 10450 10445 10438 10434 10428 10422 10419 10411 10405 10399 10393 10388 10381 10375 10368 10362 10356 10349 10342 10334 10324 10314 10306 10298 10288 10277 10265 10254 10242 10231
10484 10479 10473 10469 10467 10463 10458 10452 10445 10442 10438 10432 10428 10422 10416 10411 10405 10399 10394 10388 10382 10376 10370 10364 10359 10353 10347 10341 10334 10327 10321 10314 10306 10296 10285 10278 10270 10259 10251 10237 10227 10214 10203
10451 10447 10441 10437 10435 10431 10426 10422 10417 10413 10409 10404 10397 10392 10386 10380 10373 10369 10364 10356 10353 10346 10338 10333 10327 10319 10314 10307 10301 10296 10289 10281 10272 10262 10252 10243 10234 10226 10218 10209 10197 10186 10176
10420 10415 10411 10406 10404 10400 10398 10391 10387 10382 10379 10373 10369 10363 10356 10349 10342 10336 10328 10323 10316 10310 10305 10301 10295 10286 10279 10276 10269 10261 10255 10247 10238 10228 10219 10213 10203 10195 10187 10177 10167 10158 10147
10391 10387 10383 10378 10374 10370 10367 10362 10356 10350 10345 10340 10333 10328 10321 10314 10307 10302 10295 10288 10281 10275 10270 10266 10261 10253 10245 10239 10234 10226 10220 10216 10206 10197 10190 10182 10176 10166 10158 10149 10138 10127 10117
10357 10355 10350 10346 10340 10336 10334 10329 10324 10319 10312 10307 10300 10293 10283 10272 10268 10267 10263 10254 10246 10240 10236 10231 10226 10222 10214 10213 10204 10196 10187 10183 10178 10170 10161 10152 10144 10135 10127 10119 10110 10100 10091
10324 10320 10316 10312 10308 10302 10298 10294 10289 10283 10276 10269 10261 10254 10248 10240 10234 10228 10223 10218 10213 10205 10201 10195 10192 10190 10181 10180 10172 10167 10161 10153 10146 10139 10131 10122 10114 10106 10098 10089 10079 10071 10062
10289 10284 10279 10275 10271 10266 10261 10257 10251 10243 10238 10232 10225 10217 10212 10206 10200 10195 10190 10187 10180 10172 10170 10166 10162 10158 10153 10147 10140 10135 10128 10123 10116 10108 10101 10093 10085 10077 10069 10061 10052 10043 10034
10251 10247 10241 10237 10234 10229 10226 10221 10216 10211 10203 10197 10190 10183 10179 10173 10167 10164 10158 10153 10149 10145 10140 10135 10133 10126 10122 10119 10115 10110 10104 10097 10089 10079 10070 10063 10055 10048 10040 10031 10022 10014 10004
10213 10209 10204 10201 10198 10195 10193 10187 10182 10177 10169 10164 10158 10152 10147 10141 10136 10130 10129 10124 10120 10117 10114 10110 10106 10101 10094 10089 10085 10080 10074 10067 10060 10051 10044 10036 10030 10021 10012 10004 9996 9986 9977
10177 10175 10170 10166 10163 10160 10159 10155 10148 10146 10138 10133 10128 10125 10120 10113 10106 10103 10103 10099 10095 10091 10085 10081 10078 10071 10064 10059 10054 10050 10043 10036 10029 10023 10016 10008 10001 9993 9986 9977 9968 9960 9949
10144 10142 10137 10134 10130 10128 10128 10125 10119 10116 10109 10103 10099 10094 10089 10083 10079 10076 10077 10073 10069 10066 10062 10057 10049 10045 10041 10035 10028 10022 10016 10010 10003 9996 9988 9981 9974 9966 9958 9950 9941 9932 9921
10112 10109 10106 10104 10101 10099 10099 10095 10090 10086 10082 10078 10072 10066 10061 10057 10052 10050 10049 10046 10042 10038 10036 10031 10025 10020 10015 10009 10002 9995 9989 9982 9975 9968 9962 9955 9947 9940 9931 9920 9910 9900 9892
10083 10079 10076 10075 10073 10070 10071 10067 10062 10056 10056 10051 10047 10043 10037 10031 10028 10026 10024 10021 10016 10011 10005 10001 9997 9992 9987 9982 9976 9969 9962 9954 9948 9940 9933 9925 9917 9907 9897 9887 9881 9873 9862
10054 10051 10048 10046 10043 10041 10040 10039 10033 10031 10027 10024 10021 10016 10010 10008 10005 10002 9999 9994 9990 9985 9981 9976 9970 9963 9957 9951 9945 9939 9933 9926 9919 9911 9902 9893 9884 9874 9866 9859 9850 9838 9828
10024 10020 10019 10018 10015 10011 10009 10008 10004 10000 9999 9996 9991 9988 9987 9983 9978 9974 9970 9966 9963 9958 9953 9948 9943 9937 9931 9924 9917 9911 9904 9897 9889 9880 9872 9863 9855 9848 9838 9826 9817 9808 9800
9995 9992 9989 9989 9984 9979 9979 9977 9975 9974 9970 9965 9964 9963 9960 9955 9952 9947 9944 9940 9936 9931 9926 9921 9915 9909 9904 9897 9889 9882 9875 9868 9860 9850 9842 9835 9828 9817 9806 9797 9789 9779 9770
9961 9959 9959 9957 9954 9952 9951 9948 9946 9943 9941 9940 9939 9935 9932 9928 9924 9920 9916 9911 9907 9903 9899 9894 9887 9880 9873 9866 9859 9853 9845 9837 9831 9822 9813 9805 9798 9789 9779 9771 9761 9753 9745
9931 9930 9928 9927 9926 9924 9922 9919 9917 9916 9914 9912 9908 9906 9904 9900 9896 9892 9889 9886 9881 9876 9870 9864 9858 9851 9845 9838 9831 9824 9817 9810 9802 9792 9782 9776 9769 9762 9752 9744 9737 9730 9722